Regional Weather Roundup
Issued by NWS Sterling, VA

Home | Current Version | Previous Version | Graphics & Text | Print | Product List | Glossary On
Versions: 1 2 3 4 5 6 7 8 9 10 11 12 13 14 15 16 17 18 19 20 21 22 23 24 25 26 27 28 29 30 31 32 33 34 35 36 37 38 39 40
000
ASUS41 KLWX 271410
RWRLWX

REGIONAL WEATHER ROUNDUP
NATIONAL WEATHER SERVICE BALTIMORE MD/WASHINGTON DC
900 AM EST SAT DEC 27 2014

Note: "FAIR" indicates few or no clouds below 12,000 feet
with no significant weather and/or obstructions to visibility.
 TC=TEMPERATURE CELSIUS

 * =Non NWS site. Station does not report precipitation (e.g. rain,
    snow, etc.), thunder, or fog.

DCZ001-MDZ009-015-VAZ040>042-051-053>054-271500-
WASHINGTON METRO

CITY           SKY/WX    TMP DP  RH WIND       PRES   REMARKS
WASHINGTON NAT MOSUNNY   42  35  76 CALM      30.30R
DULLES         PTSUNNY   35  32  88 CALM      30.27S
ANDREWS AFB    MOSUNNY   37  35  92 CALM      30.28S
FT BELVOIR     MOSUNNY   33  31  94 W1        30.30R
QUANTICO       MOSUNNY   37  33  85 NW5       30.31R
COLLEGE PARK*  SUNNY     36  36 100 CALM      30.29R
LEESBURG*      MOSUNNY   36  34  93 CALM      30.28S
MANASSAS*      SUNNY     36  34  93 CALM      30.29
GAITHERSBURG*  MOSUNNY   37  36  93 CALM      30.31R

$$

MDZ006>007-011-014-271500-
BALTIMORE METRO

CITY           SKY/WX    TMP DP  RH WIND       PRES   REMARKS
BWI AIRPORT    MOSUNNY   36  32  85 CALM      30.28R
MD SCIENCE CTR   N/A     40  34  79 MISG      30.31R
MARTIN STATE   MOSUNNY   34  34 100 CALM      30.31R
ANNAPOLIS      PTSUNNY   40  35  83 CALM      30.30R
FORT MEADE*    MOSUNNY   32  32 100 CALM      30.31S

$$

MDZ012-015-019>023-271500-
MARYLAND EASTERN SHORE

CITY           SKY/WX    TMP DP  RH WIND       PRES   REMARKS
OCEAN CITY     MOSUNNY   43  40  89 VRB3      30.31R
SALISBURY      MOSUNNY   42  39  89 S3        30.29F
BAY BRIDGE AP*   N/A     39  39 100 SE3       30.29S FOG
CAMBRIDGE*     CLOUDY    41  37  87 CALM      30.29S
EASTON*        PTSUNNY   39  39 100 CALM      30.33R

$$

MDZ017>025-271500-
SOUTHERN MARYLAND

CITY           SKY/WX    TMP DP  RH WIND       PRES   REMARKS
PATUXENT RIVER PTSUNNY   42  36  79 SW3       30.29R
ST INIGOES     PTSUNNY   43  36  76 SW3       30.29R
LEONARDTOWN*   PTSUNNY   41  34  75 CALM      30.30S

$$

MDZ003>005-271500-
NORTH CENTRAL MARYLAND

CITY           SKY/WX    TMP DP  RH WIND       PRES   REMARKS
FREDERICK*     SUNNY     36  30  80 CALM      30.31R
HAGERSTOWN APT SUNNY     38  31  76 SE3       30.27R
WESTMINSTER*   MOSUNNY   39  34  81 CALM      30.26R

$$

MDZ501>502-271500-
WESTERN MARYLAND

CITY           SKY/WX    TMP DP  RH WIND       PRES   REMARKS
OAKLAND*       MOSUNNY   41  10  28 W7        30.25R
CUMBERLAND*    MOSUNNY   34  32  93 CALM      30.34R

$$

VAZ025>031-271500-
SHENANDOAH VALLEY

CITY           SKY/WX    TMP DP  RH WIND       PRES   REMARKS
WINCHESTER*    MOSUNNY   37  30  75 CALM      30.28R
FRONT ROYAL*   FAIR      39  32  75 CALM      30.26R
LURAY*         FAIR      43  32  65 CALM      30.26S
NEW MARKET*    FAIR      37  32  82 CALM      30.26S
STAUNTON*      PTSUNNY   37  31  80 CALM      30.28S
WAYNESBORO*    PTSUNNY   42  28  58 CALM      30.25F

$$

WVZ021-048>050-054>055-271500-
EASTERN WEST VIRGINIA PANHANDLE

CITY           SKY/WX    TMP DP  RH WIND       PRES   REMARKS
MARTINSBURG    MOSUNNY   35  29  78 E3        30.28R
PETERSBURG*    MOSUNNY   37  34  91 E3        30.29R

$$

VAZ036>039-050-271500-
CENTRAL FOOTHILLS

CITY           SKY/WX    TMP DP  RH WIND       PRES   REMARKS
CHARLOTTESVILL MOSUNNY   38  32  79 CALM      30.25F
CULPEPER*      MOSUNNY   36  34  93 CALM      30.27F
ORANGE*        MOSUNNY   36  34  93 CALM      30.28S
GORDONSVILLE*  FAIR      37  33  87 CALM      30.26S
WARRENTON*     FAIR      36  36 100 CALM      30.26F

$$

VAZ055>057-271500-
NORTH AND CENTRAL PIEDMONT

CITY           SKY/WX    TMP DP  RH WIND       PRES   REMARKS
FREDERICKSBRG* MOSUNNY   37  36  99 CALM      30.28R
STAFFORD*      MOSUNNY   33  33 100 CALM      30.32R

$$

NCZ024-NYZ072-PAZ021-071-VAZ022-071-271500-
OTHER REGIONAL OBSERVATIONS

CITY           SKY/WX    TMP DP  RH WIND       PRES   REMARKS
NEW YORK CITY  SUNNY     46  30  53 VRB3      30.28R
PHILADELPHIA   MOSUNNY   37  33  85 CALM      30.29R
PITTSBURGH     CLOUDY    37  32  82 CALM      30.22R
ROANOKE        PTSUNNY   39  28  64 NE3       30.31R
RICHMOND       MOSUNNY   41  36  82 CALM      30.28F
RALEIGH        MOSUNNY   40  35  83 CALM      30.32S

$$

ANZ530>537-271500-
MARINE OBSERVATIONS

STATION/POSITION TIME  TEMP    WIND        PRES
                       AIR SEA DIR/SP/G
                 (UTC) (F)     (DEG/KT/KT) (MB)
THOMAS PT LIGHT  1400   41 42  240/  1/  1 1027.0R
BALT KEY BRIDGE  1400   39     230/  2/  2 1025.9R
COVE POINT       1400   42        CALM     1025.4F
LEWISETTA        1400   43 43  230/  6/  7 1025.1R
SOLOMONS ISLAND  1400      43                N/A
PINEY POINT      1400          120/  2/  2   N/A

$$



USA.gov is the U.S. government's official web portal to all federal, state and local government web resources and services.